Other Public Products
Issued by NWS Grand Forks, ND

Home | Current Version | Previous Version | Graphics & Text | Print | Product List | Glossary On
Versions: 1 2 3 4 5 6 7 8 9 10 11 12 13 14 15 16 17 18 19 20 21 22 23 24 25 26 27 28 29 30 31 32 33 34 35 36 37 38 39 40 41 42 43 44 45 46 47 48 49 50
000
FPUS83 KFGF 201510
OPUFGF
PRAIRIE TO PINES WEATHER ROUNDUP
NATIONAL WEATHER SERVICE EASTERN NORTH DAKOTA/GRAND FORKS ND
1000 AM CDT SUN MAY 20 2018

 **SATELLITE DATA USED TO AUGMENT SKY COVER AT AUTOMATED STATIONS**
 *****  WEATHER ACROSS EASTERN NORTH DAKOTA  *****

CITY           SKY/WX    TMP DP  RH WIND       PRES   REMARKS
GRAND FORKS    FAIR      61  45  55 S8        30.26R
GRND FORKS AFB FAIR      66  42  42 SW3       30.25S
GRND FORKS NWS   N/A     60  45  56 S7        30.24R
BUXTON         NOT AVBL
DEVILS LAKE    FAIR      60  40  47 SW14      30.27R
FARGO          FAIR      59  38  45 S6        30.29R
WAHPETON ARPT  FAIR      59  32  36 E7        30.29S
$$

 *****  WEATHER ACROSS CENTRAL AND WESTERN NORTH DAKOTA  *****

CITY           SKY/WX    TMP DP  RH WIND       PRES   REMARKS
JAMESTOWN      FAIR      60  37  42 S6        30.28R
BISMARCK       FAIR      55  41  59 CALM      30.29R
MINOT          FAIR      64  31  28 S7        30.24F
MINOT AFB      FAIR      63  30  29 CALM      30.23F
GARRISON         N/A     58  37  45 S6        30.26S
WILLISTON      FAIR      59  38  45 SE8       30.22F
DICKINSON      FAIR      58  35  42 S13       30.25R
HETTINGER      FAIR      54  37  52 SE12      30.28R
$$

 *****  OTHER OBSERVATIONS NORTHEAST NORTH DAKOTA  *****

CITY           SKY/WX    TMP DP  RH WIND       PRES   REMARKS
WALHALLA       FAIR      66  39  37 W8        30.21S
LANGDON        FAIR      61  43  51 W8        30.24S
CAVALIER         N/A     64  37  36 W3        30.21S
GRAFTON        FAIR      64  43  45 W12       30.25S
CANDO          FAIR      63  41  45 W6        30.26S
FORT TOTTEN    NOT AVBL
ROLLA          FAIR      66  32  28 VRB5      30.23F
RUGBY          NOT AVBL
 ***** THE ABOVE OBSERVATIONS ARE NON NWS ARE NOT QUALITY
        CONTROLLED AND MAY MIS-REPORT RAIN FOR SNOW...
$$

 *****  OTHER OBSERVATIONS SOUTHEAST NORTH DAKOTA *****

CITY           SKY/WX    TMP DP  RH WIND       PRES   REMARKS
COOPERSTOWN    FAIR      61  39  44 W5        30.28S
VALLEY CITY    FAIR      57  37  47 VRB3      30.30S
OAKES            N/A     57  36  44 VRB6      30.29S
GWINNER          N/A     59  34  38 SE7       30.29S
SHEYENNE NWR     N/A     61  39  44 S3        29.95S
BUFFALO        NOT AVBL
WYNDMERE       NOT AVBL
 ***** THE ABOVE OBSERVATIONS ARE NON NWS ARE NOT QUALITY
       CONTROLLED AND MAY MIS-REPORT RAIN FOR SNOW...
$$

  *****  WEATHER ACROSS NORTHERN MINNESOTA  *****

CITY           SKY/WX    TMP DP  RH WIND       PRES   REMARKS
FLAG ISLAND    FAIR      52  45  76 SE8       30.21S
WARROAD        FAIR      61  39  44 SW8       30.24S
ROSEAU         FAIR      61  43  51 SW5       30.24S
HALLOCK        FAIR      63  41  45 SW8       30.22F
THF RVR FALLS  FAIR      61  37  41 SW10      30.28R
HALSTAD        NOT AVBL
FOSSTON        FAIR      59  34  38 SW7       30.29S
BAUDETTE       FAIR      61  34  36 SW8       30.24S
WASKISH        PTSUNNY   57  43  58 W8        30.27S
CROOKSTON      FAIR      63  36  36 SW10      30.27S
$$
  *****  WEATHER ACROSS CENTRAL AND WEST MINNESOTA  *****

CITY           SKY/WX    TMP DP  RH WIND       PRES   REMARKS
BEMIDJI        FAIR      59  36  41 S5        30.28S
PARK RAPIDS    FAIR      57  39  51 CALM      30.29R
WADENA         FAIR      55  39  54 NE5       30.29F
DETROIT LAKES  FAIR      55  36  47 SE6       30.30S
MOORHEAD       FAIR      59  34  38 SE3       30.30S
FERGUS FALLS   FAIR      57  36  44 E8        30.25F
ELBOW LAKE     FAIR      56  37  49 SE12      30.28F
MORRIS MN      FAIR      57  36  44 E13G18    30.26S
STAPLES        FAIR      55  36  47 NE3       30.29S
WHEATON        FAIR      57  32  38 NE8       30.29F
$$
  *****  WEATHER ELSEWHERE ACROSS MINNESOTA  *****

CITY           SKY/WX    TMP DP  RH WIND       PRES   REMARKS
DULUTH         FAIR      53  27  36 SE12      30.29R
INTRNTL FALLS  FAIR      60  35  39 W10       30.25S
ELY            FAIR      54  36  50 W6        30.27S
CLOQUET        FAIR      54  25  32 CALM      30.29R
BRAINERD       FAIR      56  34  43 VRB3      30.29F
HIBBING        FAIR      55  37  50 W5        30.28S
ALEXANDRIA     FAIR      57  37  47 NE13      30.28F
SAINT CLOUD    FAIR      55  27  34 E10G21    30.26F
MINNEAPOLIS    PTSUNNY   54  38  54 NE7       30.25R
$$

  *****  WEATHER ACROSS SOUTH DAKOTA  *****

CITY           SKY/WX    TMP DP  RH WIND       PRES   REMARKS
SIOUX FALLS    CLOUDY    49  41  74 NE13      30.20S
BROOKINGS      CLOUDY    50  35  56 NE13      30.23
WATERTOWN      FAIR      54  35  48 E15G24    30.24R
HURON          FAIR      57  38  48 E9        30.24S
SISSETON         N/A     58  35  42 E8        30.27S
ABERDEEN       FAIR      59  35  40 MISG      30.28R
MITCHELL       CLOUDY    52  39  61 NE13      30.23S
PIERRE         FAIR      55  40  56 SE8       30.26R
MOBRIDGE       FAIR      56  39  53 CALM      30.27R
RAPID CITY     FAIR      50  38  63 VRB5      30.27S
$$

  *****  SOME WEATHER IN NEARBY STATES *****

CITY           SKY/WX    TMP DP  RH WIND       PRES   REMARKS
GLASGOW MT     FAIR      58  40  51 SE22      30.12F
GREAT FALLS MT FAIR      58  43  57 S10       30.01S
CHEYENNE WY    CLOUDY    38  38 100 S7        30.26F FOG
SCOTTSBLUFF NE FAIR      49  40  71 CALM      30.28S
OMAHA NE       LGT RAIN  57  53  86 N10       30.13R FOG
DES MOINES IA  CLOUDY    59  53  80 E8        30.12R
DAVENPORT IA   CLOUDY    56  50  80 E15G22    30.15R
CHICAGO IL     CLOUDY    46  41  82 NE17      30.20R
EAU CLAIRE WI  FAIR      53  38  56 E8        30.25R
LA CROSSE WI   CLOUDY    50  47  89 NE7       30.23R
$$

  *****  SOME NATIONAL WEATHER *****

CITY           SKY/WX    TMP DP  RH WIND       PRES   REMARKS
LA GUARDIA NY  PTSUNNY   77  67  71 SW12      29.93F
RALEIGH NC     PTSUNNY   75  71  87 SW10      30.15S
ATLANTA GA     PTSUNNY   80  70  71 NW3       30.16S
NEW ORLEANS LA FAIR      84  72  67 SE9       30.08R
OKLAHOMA CITY  CLOUDY    62  59  90 NW13      30.08R
ALBUQUERQUE NM FAIR      62  41  46 E24G31    30.16R
SALT LAKE CITY FAIR      68  42  38 SE9       29.96S
LOS ANGELES CA CLOUDY    62  55  77 SW5       29.95R
BOISE ID       CLOUDY    59  51  75 S5        29.92R
SEATTLE WA     CLOUDY    55  50  83 S8        30.03R
$$

*** WEATHER ACROSS MANITOBA...SASKATCHEWAN AND ONTARIO ***
                ***ONTARIO***

CITY           SKY/WX    TMP DP  RH WIND       PRES   REMARKS
GERALDTON      MOSUNNY   59  36  41 W10G17    30.10R
THUNDER BAY    SUNNY     63  36  36 W16       30.20F
SIOUX LOOKOUT  MOSUNNY   63  34  34 W12G18    30.16S
TORONTO        MOSUNNY   63  54  72 NW12      30.06R
BIG TROUT LK   SUNNY     43  34  70 NW14G20   30.04R
PICKLE LAKE    PTSUNNY   54  28  37 W12       30.06R
DRYDEN         SUNNY     63  32  31 W14       30.18S
KENORA         SUNNY     63  30  29 W10       30.20S
$$
                *** MANITOBA***

CITY           SKY/WX    TMP DP  RH WIND       PRES   REMARKS
BRANDON        SUNNY     68  34  28 NW5       30.20S
DAUPHIN        SUNNY     72  34  25 W13       30.16S
ISLAND LAKE    PTSUNNY   52  43  71 NE5       30.09R
PILOT MOUND    NOT AVBL
THE PAS        SUNNY     68  34  28 W13G18    30.06S
THOMPSON       PTSUNNY   43  34  70 E5        30.09S
WINNIPEG       SUNNY     68  36  30 W7        30.18F
LYNN LAKE      SUNNY     45  34  65 SE9       30.04F
CHURCHILL      FLURRIES  19  14  79 N18       30.14R WCI   4
GILLAM         PTSUNNY   34  30  86 NW5       30.11S
$$
                ***SASKATCHEWAN***

CITY           SKY/WX    TMP DP  RH WIND       PRES   REMARKS
ESTEVAN        SUNNY     63  30  29 S6        30.23S
KINDERSLEY     MOSUNNY   59  36  41 S13G22    30.01F
LLOYDMINSTER   SUNNY     59  39  47 S17       29.99F
PRINCE ALBERT  SUNNY     63  34  34 SW7       30.12F
REGINA         SUNNY     61  30  31 SE13      30.20S
YORKTON        SUNNY     66  36  32 W8        30.18S


USA.gov is the U.S. government's official web portal to all federal, state and local government web resources and services.